| time (UTC) | temp C | wind direction | speed KPH | gust KPH | rain 1hr cm | rain 24hr cm | rain mn cm | humidity % | barometer mb |
| 20260510190028 | 30 | 104 | 11.3 | 20.9 | 0.00 | 0.00 | 0.00 | 78 | 1011.9 |
| 20260510184530 | 31 | 81 | 11.3 | 27.4 | 0.00 | 0.00 | 0.00 | 78 | 1011.9 |
| 20260510183029 | 30 | 69 | 9.7 | 25.7 | 0.00 | 0.00 | 0.00 | 80 | 1012.1 |
| 20260510181529 | 30 | 113 | 9.7 | 27.4 | 0.00 | 0.00 | 0.00 | 81 | 1012.3 |
| 20260510180028 | 30 | 135 | 9.7 | 25.7 | 0.00 | 0.00 | 0.00 | 81 | 1012.4 |
| 20260510174530 | 29 | 90 | 11.3 | 22.5 | 0.00 | 0.00 | 0.00 | 83 | 1012.5 |
| 20260510173035 | 28 | 104 | 11.3 | 25.7 | 0.00 | 0.00 | 0.00 | 84 | 1012.6 |
| 20260510171535 | 28 | 136 | 12.9 | 22.5 | 0.00 | 0.00 | 0.00 | 84 | 1012.6 |
| 20260510170027 | 28 | 75 | 11.3 | 22.5 | 0.00 | 0.00 | 0.00 | 84 | 1012.5 |
| 20260510164528 | 29 | 65 | 9.7 | 24.1 | 0.00 | 0.00 | 0.00 | 84 | 1012.3 |
| 20260510163028 | 28 | 74 | 11.3 | 22.5 | 0.00 | 0.00 | 0.00 | 86 | 1012.0 |
| 20260510161527 | 28 | 108 | 8.0 | 17.7 | 0.00 | 0.00 | 0.00 | 87 | 1012.1 |
| 20260510160030 | 28 | 98 | 9.7 | 19.3 | 0.00 | 0.00 | 0.00 | 87 | 1012.2 |
| 20260510154529 | 28 | 167 | 6.4 | 19.3 | 0.00 | 0.00 | 0.00 | 87 | 1012.0 |
| 20260510153038 | 28 | 178 | 8.0 | 19.3 | 0.00 | 0.00 | 0.00 | 87 | 1011.9 |
| 20260510151533 | 28 | 107 | 6.4 | 16.1 | 0.00 | 0.00 | 0.00 | 88 | 1011.9 |
| 20260510150030 | 27 | 78 | 6.4 | 16.1 | 0.00 | 0.00 | 0.00 | 90 | 1011.8 |
| 20260510144528 | 27 | 105 | 6.4 | 16.1 | 0.00 | 0.00 | 0.00 | 92 | 1012.0 |
| 20260510143030 | 27 | 113 | 6.4 | 16.1 | 0.00 | 0.00 | 0.00 | 92 | 1011.9 |
| 20260510141532 | 26 | 73 | 6.4 | 20.9 | 0.00 | 0.00 | 0.00 | 94 | 1011.9 |
| 20260510140028 | 26 | 87 | 6.4 | 12.9 | 0.00 | 0.00 | 0.00 | 96 | 1011.9 |
| 20260510134530 | 25 | 115 | 4.8 | 14.5 | 0.00 | 0.00 | 0.00 | 96 | 1012.1 |
| 20260510133027 | 25 | 65 | 6.4 | 14.5 | 0.00 | 0.00 | 0.00 | 97 | 1011.9 |
| 20260510131528 | 25 | 84 | 3.2 | 11.3 | 0.00 | 0.00 | 0.00 | 97 | 1011.9 |
| 20260510130041 | 25 | 65 | 1.6 | 6.4 | 0.00 | 0.00 | 0.00 | 97 | 1011.8 |
| 20260510124531 | 25 | 0 | 1.6 | 6.4 | 0.00 | 0.00 | 0.00 | 97 | 1011.6 |
| 20260510123028 | 24 | 53 | 0.0 | 4.8 | 0.00 | 0.00 | 0.00 | 97 | 1011.3 |
| 20260510121532 | 24 | 0 | 0.0 | 4.8 | 0.00 | 0.00 | 0.00 | 97 | 1011.1 |
| 20260510120032 | 24 | 0 | 1.6 | 8.0 | 0.00 | 0.00 | 0.00 | 97 | 1010.9 |
| 20260510114528 | 24 | 39 | 1.6 | 6.4 | 0.00 | 0.00 | 0.00 | 97 | 1010.5 |
| 20260510113029 | 23 | 30 | 1.6 | 8.0 | 0.00 | 0.00 | 0.00 | 97 | 1010.5 |
| 20260510111528 | 23 | 0 | 0.0 | 4.8 | 0.00 | 0.00 | 0.00 | 97 | 1010.2 |
| 20260510110038 | 23 | 0 | 0.0 | 0.0 | 0.00 | 0.00 | 0.00 | 97 | 1010.1 |
| 20260510104530 | 23 | 0 | 0.0 | 0.0 | 0.00 | 0.00 | 0.00 | 97 | 1009.9 |
| 20260510103029 | 23 | 0 | 0.0 | 4.8 | 0.00 | 0.00 | 0.00 | 97 | 1009.7 |
| 20260510101533 | 23 | 35 | 1.6 | 6.4 | 0.00 | 0.00 | 0.00 | 96 | 1009.7 |
| 20260510100031 | 23 | 19 | 1.6 | 4.8 | 0.00 | 0.00 | 0.00 | 96 | 1009.9 |
| 20260510094528 | 23 | 0 | 3.2 | 8.0 | 0.00 | 0.00 | 0.00 | 96 | 1010.0 |
| 20260510093032 | 23 | 0 | 0.0 | 4.8 | 0.00 | 0.00 | 0.00 | 96 | 1009.9 |
| 20260510091536 | 23 | 0 | 0.0 | 3.2 | 0.00 | 0.00 | 0.00 | 96 | 1009.5 |
| 20260510090030 | 23 | 0 | 0.0 | 1.6 | 0.00 | 0.00 | 0.00 | 96 | 1009.9 |
| 20260510084534 | 23 | 0 | 0.0 | 0.0 | 0.00 | 0.00 | 0.00 | 96 | 1010.0 |
| 20260510083027 | 23 | 0 | 0.0 | 3.2 | 0.00 | 0.00 | 0.00 | 96 | 1010.1 |
| 20260510081534 | 23 | 0 | 0.0 | 4.8 | 0.00 | 0.00 | 0.00 | 95 | 1010.0 |
| 20260510080027 | 23 | 0 | 1.6 | 3.2 | 0.00 | 0.00 | 0.00 | 95 | 1010.3 |
| 20260510074530 | 23 | 0 | 0.0 | 1.6 | 0.00 | 0.00 | 0.00 | 95 | 1010.5 |
| 20260510073032 | 23 | 0 | 0.0 | 0.0 | 0.00 | 0.00 | 0.00 | 95 | 1010.8 |
| 20260510071530 | 23 | 0 | 0.0 | 1.6 | 0.00 | 0.00 | 0.00 | 95 | 1011.0 |
| 20260510070032 | 24 | 121 | 0.0 | 3.2 | 0.00 | 0.00 | 0.00 | 95 | 1010.9 |
| 20260510064534 | 24 | 90 | 0.0 | 3.2 | 0.00 | 0.00 | 0.00 | 94 | 1011.1 |
| 20260510063028 | 24 | 0 | 0.0 | 3.2 | 0.00 | 0.00 | 0.00 | 94 | 1011.0 |
| 20260510061530 | 24 | 0 | 0.0 | 4.8 | 0.00 | 0.00 | 0.00 | 94 | 1010.9 |
| 20260510060032 | 24 | 93 | 1.6 | 6.4 | 0.00 | 0.00 | 0.00 | 95 | 1010.9 |
| 20260510054531 | 24 | 0 | 0.0 | 9.7 | 0.00 | 0.00 | 0.00 | 95 | 1011.1 |
| 20260510053029 | 24 | 0 | 3.2 | 11.3 | 0.00 | 0.00 | 0.00 | 95 | 1011.3 |
| 20260510051530 | 24 | 136 | 6.4 | 14.5 | 0.00 | 0.00 | 0.00 | 95 | 1011.4 |
| 20260510050027 | 24 | 131 | 3.2 | 9.7 | 0.00 | 0.00 | 0.00 | 95 | 1011.1 |
| 20260510044532 | 24 | 0 | 3.2 | 9.7 | 0.00 | 0.00 | 0.00 | 95 | 1011.2 |
| 20260510043031 | 24 | 92 | 1.6 | 9.7 | 0.00 | 0.00 | 0.00 | 95 | 1011.4 |
| 20260510041528 | 24 | 0 | 0.0 | 9.7 | 0.00 | 0.00 | 0.00 | 94 | 1011.6 |
| 20260510040030 | 24 | 0 | 1.6 | 6.4 | 0.00 | 0.00 | 0.00 | 94 | 1011.2 |
| 20260510034530 | 24 | 89 | 1.6 | 6.4 | 0.00 | 0.00 | 0.00 | 94 | 1011.2 |
| 20260510033028 | 25 | 0 | 1.6 | 6.4 | 0.00 | 0.00 | 0.00 | 94 | 1011.0 |
| 20260510031528 | 25 | 44 | 1.6 | 6.4 | 0.00 | 0.00 | 0.00 | 93 | 1010.4 |
| 20260510030028 | 25 | 53 | 3.2 | 8.0 | 0.00 | 0.00 | 0.00 | 93 | 1010.3 |
| 20260510024528 | 25 | 80 | 1.6 | 9.7 | 0.00 | 0.00 | 0.00 | 92 | 1010.1 |
| 20260510023031 | 25 | 35 | 3.2 | 8.0 | 0.00 | 0.00 | 0.00 | 92 | 1010.1 |
| 20260510021531 | 25 | 86 | 3.2 | 12.9 | 0.00 | 0.00 | 0.00 | 91 | 1009.9 |
| 20260510020030 | 25 | 51 | 4.8 | 11.3 | 0.00 | 0.00 | 0.00 | 90 | 1009.5 |
| 20260510014530 | 26 | 45 | 3.2 | 16.1 | 0.00 | 0.00 | 0.00 | 90 | 1009.4 |
| 20260510013029 | 26 | 22 | 8.0 | 19.3 | 0.00 | 0.00 | 0.00 | 90 | 1009.2 |
| 20260510011530 | 26 | 45 | 6.4 | 17.7 | 0.00 | 0.00 | 0.00 | 89 | 1009.3 |
| 20260510010029 | 26 | 67 | 3.2 | 16.1 | 0.00 | 0.00 | 0.00 | 88 | 1009.3 |
| 20260510004530 | 26 | 73 | 8.0 | 19.3 | 0.00 | 0.00 | 0.00 | 87 | 1009.3 |
| 20260510003028 | 26 | 44 | 6.4 | 17.7 | 0.00 | 0.00 | 0.00 | 87 | 1009.1 |
| 20260510001530 | 26 | 21 | 6.4 | 17.7 | 0.00 | 0.00 | 0.00 | 86 | 1009.2 |
| 20260510000035 | 26 | 70 | 11.3 | 22.5 | 0.00 | 0.00 | 0.00 | 85 | 1009.0 |
| 20260509234540 | 27 | 62 | 8.0 | 16.1 | 0.00 | 0.00 | 0.00 | 85 | 1009.0 |
| 20260509233030 | 27 | 53 | 11.3 | 20.9 | 0.00 | 0.00 | 0.00 | 84 | 1008.6 |
| 20260509231529 | 27 | 64 | 11.3 | 24.1 | 0.00 | 0.00 | 0.00 | 83 | 1008.6 |
| 20260509230028 | 27 | 10 | 11.3 | 24.1 | 0.00 | 0.00 | 0.00 | 82 | 1008.5 |
| 20260509224544 | 27 | 65 | 8.0 | 20.9 | 0.00 | 0.00 | 0.00 | 83 | 1008.5 |
| 20260509223030 | 27 | 39 | 11.3 | 25.7 | 0.00 | 0.00 | 0.00 | 82 | 1008.6 |
| 20260509221532 | 28 | 50 | 14.5 | 24.1 | 0.00 | 0.00 | 0.00 | 80 | 1008.5 |
| 20260509220028 | 28 | 61 | 9.7 | 22.5 | 0.00 | 0.00 | 0.00 | 80 | 1008.6 |
| 20260509214530 | 28 | 103 | 11.3 | 24.1 | 0.00 | 0.00 | 0.00 | 80 | 1008.5 |
| 20260509213028 | 28 | 80 | 14.5 | 27.4 | 0.00 | 0.00 | 0.00 | 80 | 1008.6 |
| 20260509211527 | 28 | 42 | 9.7 | 25.7 | 0.00 | 0.00 | 0.00 | 78 | 1009.0 |
| 20260509210028 | 29 | 9 | 9.7 | 25.7 | 0.00 | 0.00 | 0.00 | 75 | 1009.1 |
| 20260509204528 | 30 | 44 | 8.0 | 22.5 | 0.00 | 0.00 | 0.00 | 73 | 1009.2 |
| 20260509203035 | 30 | 87 | 11.3 | 25.7 | 0.00 | 0.00 | 0.00 | 71 | 1009.2 |
| 20260509201528 | 30 | 91 | 6.4 | 22.5 | 0.00 | 0.00 | 0.00 | 69 | 1009.1 |
| 20260509200030 | 30 | 98 | 8.0 | 20.9 | 0.00 | 0.00 | 0.00 | 68 | 1009.3 |
| 20260509194742 | 30 | 85 | 9.7 | 20.9 | 0.00 | 0.00 | 0.00 | 69 | 1009.1 |